KD0SBM Weather Reports


time (UTC)temp
C
wind
direction
speed
KPH
gust
KPH
rain 1hr
cm
rain 24hr
cm
rain mn
cm
humidity
%
barometer
mb
20260503010518 16 0 11.3 30.6 0.00 0.00 0.00 40 1010.6
20260503010032 16 239 6.4 37.0 0.00 0.00 0.00 41 1010.7
20260503005517 16 237 14.5 37.0 0.00 0.00 0.00 40 1010.6
20260503005017 16 234 6.4 25.7 0.00 0.00 0.00 39 1010.6
20260503004538 16 283 1.6 22.5 0.00 0.00 0.00 39 1010.6
20260503004023 16 205 4.8 22.5 0.00 0.00 0.00 39 1010.6
20260503003518 17 218 9.7 29.0 0.00 0.00 0.00 38 1010.7
20260503003038 17 284 6.4 29.0 0.00 0.00 0.00 38 1010.7
20260503002518 17 271 14.5 29.0 0.00 0.00 0.00 37 1010.7
20260503002018 17 230 6.4 17.7 0.00 0.00 0.00 37 1010.7
20260503001538 17 251 4.8 16.1 0.00 0.00 0.00 36 1010.6
20260503001016 17 202 3.2 16.1 0.00 0.00 0.00 36 1010.6
20260503000516 17 0 0.0 12.9 0.00 0.00 0.00 36 1010.6
20260503000036 17 0 1.6 14.5 0.00 0.00 0.00 37 1010.6
20260502235515 17 221 1.6 17.7 0.00 0.00 0.00 37 1010.6
20260502235018 17 172 4.8 17.7 0.00 0.00 0.00 37 1010.8
20260502234536 17 322 1.6 8.0 0.00 0.00 0.00 37 1010.8
20260502234015 17 0 0.0 6.4 0.00 0.00 0.00 36 1010.9
20260502233518 17 0 0.0 9.7 0.00 0.00 0.00 35 1010.8
20260502233034 17 207 1.6 9.7 0.00 0.00 0.00 35 1010.9
20260502232518 17 0 0.0 8.0 0.00 0.00 0.00 35 1010.9
20260502232018 17 0 1.6 11.3 0.00 0.00 0.00 35 1010.9
20260502231538 17 126 3.2 11.3 0.00 0.00 0.00 35 1010.9
20260502231021 17 219 3.2 11.3 0.00 0.00 0.00 35 1011.2
20260502230519 17 0 0.0 14.5 0.00 0.00 0.00 36 1011.1
20260502230036 17 231 3.2 16.1 0.00 0.00 0.00 35 1011.3
20260502225518 17 263 4.8 17.7 0.00 0.00 0.00 35 1011.4
20260502225020 17 217 9.7 17.7 0.00 0.00 0.00 34 1011.4
20260502224541 17 218 4.8 19.3 0.00 0.00 0.00 34 1011.4
20260502224018 17 221 8.0 19.3 0.00 0.00 0.00 34 1011.4
20260502223518 17 192 9.7 22.5 0.00 0.00 0.00 35 1011.4
20260502223037 17 257 9.7 22.5 0.00 0.00 0.00 34 1011.5
20260502222518 17 285 8.0 20.9 0.00 0.00 0.00 35 1011.5
20260502222018 18 297 4.8 19.3 0.00 0.00 0.00 35 1011.5
20260502221609 18 236 4.8 19.3 0.00 0.00 0.00 35 1011.6
20260502221018 18 222 9.7 16.1 0.00 0.00 0.00 33 1011.6
20260502220518 17 228 4.8 19.3 0.00 0.00 0.00 34 1011.7
20260502220041 17 232 4.8 20.9 0.00 0.00 0.00 34 1011.7
20260502215519 17 182 9.7 20.9 0.00 0.00 0.00 33 1011.8
20260502215018 17 252 6.4 27.4 0.00 0.00 0.00 34 1011.9
20260502214537 18 202 6.4 27.4 0.00 0.00 0.00 33 1011.9
20260502214018 18 245 11.3 25.7 0.00 0.00 0.00 34 1012.0
20260502213518 18 207 6.4 17.7 0.00 0.00 0.00 31 1012.0
20260502213037 18 243 3.2 19.3 0.00 0.00 0.00 32 1012.1
20260502212519 19 205 9.7 20.9 0.00 0.00 0.00 32 1012.2
20260502212020 19 246 6.4 20.9 0.00 0.00 0.00 33 1012.2
20260502211545 19 279 6.4 20.9 0.00 0.00 0.00 33 1012.4
20260502211019 18 227 6.4 20.9 0.00 0.00 0.00 32 1012.5
20260502210518 19 230 4.8 19.3 0.00 0.00 0.00 33 1012.6
20260502210036 19 259 6.4 20.9 0.00 0.00 0.00 33 1012.7
20260502205517 18 236 11.3 22.5 0.00 0.00 0.00 34 1012.8
20260502205017 18 299 9.7 24.1 0.00 0.00 0.00 35 1012.9
20260502204536 18 290 6.4 24.1 0.00 0.00 0.00 38 1013.0
20260502204017 18 234 12.9 24.1 0.00 0.00 0.00 34 1013.1
20260502203516 18 307 6.4 20.9 0.00 0.00 0.00 33 1013.1
20260502203034 18 261 8.0 22.5 0.00 0.00 0.00 32 1013.3
20260502202517 18 290 4.8 22.5 0.00 0.00 0.00 36 1013.4
20260502202018 17 188 8.0 27.4 0.00 0.00 0.00 34 1013.5
20260502201536 17 223 8.0 27.4 0.00 0.00 0.00 33 1013.8
20260502201017 17 211 9.7 20.9 0.00 0.00 0.00 33 1013.7
20260502200520 17 258 8.0 22.5 0.00 0.00 0.00 36 1013.8
20260502200038 16 246 6.4 22.5 0.00 0.00 0.00 36 1014.1
20260502195518 16 219 8.0 22.5 0.00 0.00 0.00 36 1014.1
20260502195016 16 317 3.2 17.7 0.00 0.00 0.00 36 1014.2
20260502194538 16 194 9.7 17.7 0.00 0.00 0.00 34 1014.3
20260502194018 17 0 6.4 20.9 0.00 0.00 0.00 36 1014.4
20260502193518 16 232 4.8 20.9 0.00 0.00 0.00 35 1014.5
20260502193037 16 217 3.2 24.1 0.00 0.00 0.00 33 1014.6
20260502192520 16 275 11.3 24.1 0.00 0.00 0.00 35 1014.7
20260502192018 17 234 9.7 19.3 0.00 0.00 0.00 35 1014.7
20260502191536 17 206 8.0 20.9 0.00 0.00 0.00 33 1014.7
20260502191024 16 257 8.0 20.9 0.00 0.00 0.00 35 1014.8
20260502190517 17 251 4.8 17.7 0.00 0.00 0.00 36 1014.9
20260502190035 17 240 4.8 19.3 0.00 0.00 0.00 39 1015.0
20260502185519 16 267 8.0 19.3 0.00 0.00 0.00 39 1015.1
20260502185015 17 254 6.4 19.3 0.00 0.00 0.00 36 1015.3
20260502184544 16 344 6.4 14.5 0.00 0.00 0.00 35 1015.3
20260502184021 16 241 3.2 17.7 0.00 0.00 0.00 35 1015.4
20260502183519 16 199 3.2 17.7 0.00 0.00 0.00 36 1015.5
20260502183038 15 144 3.2 16.1 0.00 0.00 0.00 38 1015.6
20260502182517 16 288 4.8 22.5 0.00 0.00 0.00 38 1015.6
20260502182017 15 216 6.4 22.5 0.00 0.00 0.00 37 1015.7
20260502181536 15 211 3.2 17.7 0.00 0.00 0.00 36 1015.7
20260502181019 15 218 3.2 20.9 0.00 0.00 0.00 39 1015.8
20260502180517 15 0 8.0 20.9 0.00 0.00 0.00 36 1015.9
20260502170517 14 250 4.8 24.1 0.00 0.00 0.00 38 1016.8
20260502164021 14 251 9.7 30.6 0.00 0.00 0.00 39 1017.2
20260502163516 15 296 4.8 27.4 0.00 0.00 0.00 44 1017.2
20260502163042 14 0 9.7 27.4 0.00 0.00 0.00 41 1017.3
20260502162516 13 226 3.2 22.5 0.00 0.00 0.00 40 1017.3
20260502162017 14 285 9.7 24.1 0.00 0.00 0.00 41 1017.4
20260502161539 13 292 11.3 24.1 0.00 0.00 0.00 39 1017.4
20260502161020 13 299 12.9 20.9 0.00 0.00 0.00 38 1017.5
20260502160521 13 249 6.4 16.1 0.00 0.00 0.00 42 1017.5
20260502152020 12 222 4.8 17.7 0.00 0.00 0.00 45 1017.8
20260502151537 12 217 6.4 20.9 0.00 0.00 0.00 44 1017.8
20260502151018 12 309 3.2 20.9 0.00 0.00 0.00 46 1017.8
20260502150518 11 309 6.4 20.9 0.00 0.00 0.00 48 1017.9
20260502130515 4 0 3.2 12.9 0.00 0.00 0.00 74 1018.2
20260502123516 2 264 1.6 6.4 0.00 0.00 0.00 77 1018.2
20260502123036 2 240 1.6 6.4 0.00 0.00 0.00 77 1018.1
20260502122519 1 0 0.0 4.8 0.00 0.00 0.00 77 1018.2
20260502122020 1 0 0.0 3.2 0.00 0.00 0.00 77 1018.2
20260502121536 1 267 0.0 1.6 0.00 0.00 0.00 77 1018.3
20260502121018 1 0 0.0 1.6 0.00 0.00 0.00 76 1018.4
20260502120518 1 0 0.0 1.6 0.00 0.00 0.00 76 1018.4
20260502115520 1 0 0.0 3.2 0.00 0.00 0.00 76 1018.4
20260502115019 0 0 0.0 4.8 0.00 0.00 0.00 76 1018.3
20260502114539 0 0 0.0 4.8 0.00 0.00 0.00 75 1018.2
20260502114017 0 0 0.0 4.8 0.00 0.00 0.00 75 1018.1
20260502113519 0 261 0.0 4.8 0.00 0.00 0.00 75 1018.0
20260502113037 0 0 0.0 4.8 0.00 0.00 0.00 75 1018.1
20260502112518 0 258 0.0 3.2 0.00 0.00 0.00 75 1018.0
20260502112016 0 0 0.0 3.2 0.00 0.00 0.00 75 1017.9
20260502111538 0 0 0.0 4.8 0.00 0.00 0.00 75 1017.9
20260502111018 0 0 0.0 4.8 0.00 0.00 0.00 75 1017.9
20260502110518 0 0 0.0 4.8 0.00 0.00 0.00 74 1018.0
20260502110037 0 0 0.0 6.4 0.00 0.00 0.00 74 1018.0
20260502105521 0 0 0.0 6.4 0.00 0.00 0.00 74 1018.0
20260502105017 0 269 0.0 6.4 0.00 0.00 0.00 74 1018.0
20260502104543 0 0 0.0 4.8 0.00 0.00 0.00 74 1017.9
20260502104017 0 0 0.0 4.8 0.00 0.00 0.00 74 1017.9
20260502103516 0 0 0.0 4.8 0.00 0.00 0.00 74 1017.9
20260502103041 0 0 0.0 4.8 0.00 0.00 0.00 73 1017.9
20260502102518 0 0 0.0 1.6 0.00 0.00 0.00 74 1018.0
20260502102018 0 0 0.0 1.6 0.00 0.00 0.00 74 1018.0
20260502101548 0 0 0.0 1.6 0.00 0.00 0.00 74 1017.9
20260502101018 0 0 0.0 1.6 0.00 0.00 0.00 74 1017.9
20260502100518 0 0 0.0 1.6 0.00 0.00 0.00 74 1017.9
20260502091018 0 0 0.0 1.6 0.00 0.00 0.00 74 1017.9
20260502090518 0 0 0.0 4.8 0.00 0.00 0.00 74 1017.8
20260502071534 1 0 0.0 0.0 0.00 0.00 0.00 69 1018.2
20260502071019 1 0 0.0 0.0 0.00 0.00 0.00 69 1018.1
20260502070519 1 0 0.0 0.0 0.00 0.00 0.00 69 1018.2
20260502070037 1 0 0.0 0.0 0.00 0.00 0.00 69 1018.2
20260502065519 1 0 0.0 0.0 0.00 0.00 0.00 69 1018.3
20260502065019 1 0 0.0 0.0 0.00 0.00 0.00 68 1018.3
20260502064543 1 0 0.0 0.0 0.00 0.00 0.00 68 1018.3
20260502064031 1 0 0.0 0.0 0.00 0.00 0.00 68 1018.4
20260502063518 1 0 0.0 0.0 0.00 0.00 0.00 68 1018.4
20260502063039 1 0 0.0 0.0 0.00 0.00 0.00 67 1018.4
20260502062516 1 0 0.0 0.0 0.00 0.00 0.00 67 1018.4
20260502062016 1 0 0.0 0.0 0.00 0.00 0.00 67 1018.4
20260502061535 1 0 0.0 0.0 0.00 0.00 0.00 67 1018.4
20260502061018 1 0 0.0 0.0 0.00 0.00 0.00 67 1018.3
20260502060517 1 0 0.0 0.0 0.00 0.00 0.00 67 1018.4
20260502060038 1 0 0.0 0.0 0.00 0.00 0.00 67 1018.4
20260502055518 2 0 0.0 0.0 0.00 0.00 0.00 66 1018.4
20260502055016 2 0 0.0 0.0 0.00 0.00 0.00 66 1018.4
20260502054540 2 0 0.0 0.0 0.00 0.00 0.00 66 1018.4
20260502054016 2 0 0.0 0.0 0.00 0.00 0.00 66 1018.4
20260502053515 2 0 0.0 0.0 0.00 0.00 0.00 65 1018.4
20260502053048 2 0 0.0 0.0 0.00 0.00 0.00 65 1018.4
20260502052520 2 0 0.0 0.0 0.00 0.00 0.00 64 1018.4
20260502052019 2 0 0.0 0.0 0.00 0.00 0.00 64 1018.4
20260502051546 2 0 0.0 0.0 0.00 0.00 0.00 64 1018.4
20260502051018 2 0 0.0 0.0 0.00 0.00 0.00 63 1018.4
20260502050518 2 0 0.0 0.0 0.00 0.00 0.00 63 1018.4
20260502050037 2 0 0.0 1.6 0.00 0.00 0.00 63 1018.3
20260502045518 2 0 0.0 1.6 0.00 0.00 0.00 62 1018.3
20260502045018 2 0 0.0 0.0 0.00 0.00 0.00 62 1018.3
20260502044535 2 0 0.0 0.0 0.00 0.00 0.00 62 1018.3
20260502044018 2 0 0.0 0.0 0.00 0.00 0.00 62 1018.2
20260502043518 3 0 0.0 0.0 0.00 0.00 0.00 61 1018.3
20260502043034 3 0 0.0 0.0 0.00 0.00 0.00 61 1018.3
20260502042518 3 0 0.0 0.0 0.00 0.00 0.00 61 1018.3
20260502042017 3 0 0.0 0.0 0.00 0.00 0.00 61 1018.3
20260502041540 3 0 0.0 0.0 0.00 0.00 0.00 61 1018.3
20260502041018 3 0 0.0 0.0 0.00 0.00 0.00 60 1018.3
20260502040519 3 0 0.0 0.0 0.00 0.00 0.00 60 1018.3
20260502040032 3 0 0.0 0.0 0.00 0.00 0.00 60 1018.4
20260502035517 3 0 0.0 0.0 0.00 0.00 0.00 59 1018.4
20260502035018 4 0 0.0 0.0 0.00 0.00 0.00 59 1018.4
20260502034537 4 0 0.0 0.0 0.00 0.00 0.00 59 1018.5
20260502034023 4 0 0.0 0.0 0.00 0.00 0.00 58 1018.5
20260502033537 4 0 0.0 0.0 0.00 0.00 0.00 58 1018.5
20260502033039 5 0 0.0 0.0 0.00 0.00 0.00 58 1018.5
20260502032521 5 0 0.0 0.0 0.00 0.00 0.00 57 1018.5
20260502032018 5 0 0.0 0.0 0.00 0.00 0.00 56 1018.5
20260502031541 5 0 0.0 0.0 0.00 0.00 0.00 55 1018.5
20260502031018 5 0 0.0 0.0 0.00 0.00 0.00 54 1018.5
20260502030521 5 0 0.0 0.0 0.00 0.00 0.00 53 1018.5
20260502030037 5 0 0.0 0.0 0.00 0.00 0.00 51 1018.5
20260502025518 5 0 0.0 0.0 0.00 0.00 0.00 51 1018.5
20260502025018 6 0 0.0 0.0 0.00 0.00 0.00 49 1018.4
20260502024537 6 0 0.0 0.0 0.00 0.00 0.00 48 1018.5
20260502024021 6 0 0.0 0.0 0.00 0.00 0.00 47 1018.4
20260502023518 6 0 0.0 0.0 0.00 0.00 0.00 46 1018.4
20260502023036 6 0 0.0 0.0 0.00 0.00 0.00 46 1018.5
20260502022521 6 0 0.0 0.0 0.00 0.00 0.00 45 1018.5
20260502022019 6 0 0.0 0.0 0.00 0.00 0.00 45 1018.4
20260502021536 7 0 0.0 0.0 0.00 0.00 0.00 45 1018.4
20260502021018 7 0 0.0 0.0 0.00 0.00 0.00 44 1018.4
20260502020518 7 0 0.0 0.0 0.00 0.00 0.00 44 1018.4
20260502020032 7 0 0.0 0.0 0.00 0.00 0.00 43 1018.3
20260502015515 7 0 0.0 0.0 0.00 0.00 0.00 42 1018.2
20260502015020 8 0 0.0 0.0 0.00 0.00 0.00 41 1018.2
20260502014538 8 0 0.0 0.0 0.00 0.00 0.00 40 1018.1
20260502014017 8 0 0.0 0.0 0.00 0.00 0.00 40 1018.1
20260502013518 8 0 0.0 0.0 0.00 0.00 0.00 40 1018.0
20260502013044 9 0 0.0 0.0 0.00 0.00 0.00 39 1018.0
20260502012516 9 0 0.0 0.0 0.00 0.00 0.00 39 1017.9
20260502012016 9 0 0.0 0.0 0.00 0.00 0.00 39 1017.9
20260502011556 10 0 0.0 0.0 0.00 0.00 0.00 39 1017.8
20260502011018 10 0 0.0 3.2 0.00 0.00 0.00 39 1017.8